Oscoda, MI

9:24 PM EST on January 17, 2017 (GMT -0500)
Oscoda-Wurtsmith

Weather History for KOSC - June, 2014

Change the Weather History Date:

Saturday, June 28, 2014

  Actual Average Record
Temperature  
Mean Temperature 67 °F -  
Max Temperature 81 °F 76 °F 92 °F (2012)
Min Temperature 53 °F 55 °F 44 °F (2000)
Cooling Degree Days 2    
Growing Degree Days 17 (Base 50)    
Moisture  
Dew Point 59 °F    
Average Humidity 70    
Maximum Humidity 91    
Minimum Humidity 51    
Precipitation  
Precipitation 0.00 in - - ()
Sea Level Pressure  
Sea Level Pressure 30.10 in    
Wind  
Wind Speed 3 mph (SE)    
Max Wind Speed 15 mph    
Max Gust Speed 20 mph    
Visibility 10 miles    
Events      
Averages and records for this station are not official NWS values.
T = Trace of Precipitation, MM = Missing Value Source: NWS Daily Summary

Daily Weather History Graph

Daily Weather History Graph

Search for Another Location

Airport or City:

Trip Planner

Search our weather history database for the weather conditions in past years. The results will help you decide how hot, cold, wet, or windy it might be!

Date:

Astronomy

Jun. 28, 2014 Rise Set
Actual Time 5:51 AM EDT 9:22 PM EDT
Civil Twilight 5:14 AM EDT 9:58 PM EDT
Nautical Twilight 4:26 AM EDT 10:47 PM EDT
Astronomical Twilight 3:23 AM EDT 11:49 PM EDT
Moon 7:18 AM EDT (6/28) 10:00 PM EDT (6/28)
Length of Visible Light 16h 44m
Length of Day
15h 30m
New Moon, 2% of the Moon is Illuminated
Jun 28
New Moon
Jul 5
First Quarter
Jul 12
Full
Jul 18
Last Quarter
Jul 26
New

Hourly Weather History & Observations

Time (EDT) Temp. Heat Index Dew Point Humidity Pressure Visibility Wind Dir Wind Speed Gust Speed Precip Events Conditions
12:13 AM 62.1 °F - 52.9 °F 72% 30.12 in 10.0 mi ESE 3.5 mph - N/A   Clear
12:33 AM 59.5 °F - 51.4 °F 75% 30.12 in 10.0 mi Calm Calm - N/A   Clear
12:53 AM 56.5 °F - 50.7 °F 81% 30.12 in 10.0 mi Calm Calm - N/A   Clear
1:13 AM 54.5 °F - 50.2 °F 85% 30.12 in 10.0 mi Calm Calm - N/A   Clear
1:33 AM 56.1 °F - 50.7 °F 82% 30.12 in 10.0 mi Calm Calm - N/A   Clear
1:53 AM 56.8 °F - 51.1 °F 81% 30.11 in 10.0 mi Calm Calm - N/A   Clear
2:13 AM 54.9 °F - 50.7 °F 86% 30.11 in 10.0 mi Calm Calm - N/A   Clear
2:33 AM 55.4 °F - 51.1 °F 85% 30.12 in 10.0 mi Calm Calm - N/A   Clear
2:53 AM 53.8 °F - 50.4 °F 88% 30.11 in 10.0 mi Calm Calm - N/A   Clear
3:13 AM 54.0 °F - 50.5 °F 88% 30.11 in 10.0 mi Calm Calm - N/A   Clear
3:33 AM 55.4 °F - 51.8 °F 88% 30.11 in 10.0 mi Calm Calm - N/A   Clear
3:53 AM 55.4 °F - 51.4 °F 87% 30.11 in 10.0 mi Calm Calm - N/A   Clear
4:13 AM 54.0 °F - 50.4 °F 88% 30.11 in 10.0 mi Calm Calm - N/A   Clear
4:34 AM 54.7 °F - 51.3 °F 88% 30.12 in 10.0 mi Calm Calm - N/A   Clear
4:53 AM 54.0 °F - 50.4 °F 88% 30.12 in 10.0 mi Calm Calm - N/A   Clear
5:13 AM 54.5 °F - 51.1 °F 88% 30.12 in 10.0 mi Calm Calm - N/A   Clear
5:34 AM 53.6 °F - 50.9 °F 91% 30.13 in 10.0 mi Calm Calm - N/A   Clear
5:53 AM 53.2 °F - 50.7 °F 91% 30.13 in 10.0 mi Calm Calm - N/A   Clear
6:13 AM 53.6 °F - 50.9 °F 91% 30.13 in 10.0 mi Calm Calm - N/A   Clear
6:33 AM 54.5 °F - 51.4 °F 89% 30.14 in 10.0 mi Calm Calm - N/A   Clear
6:53 AM 56.5 °F - 52.7 °F 87% 30.14 in 10.0 mi Calm Calm - N/A   Clear
7:14 AM 58.6 °F - 53.8 °F 84% 30.14 in 10.0 mi Calm Calm - N/A   Clear
7:33 AM 61.5 °F - 55.0 °F 79% 30.15 in 10.0 mi Calm Calm - N/A   Clear
7:53 AM 64.0 °F - 57.6 °F 79% 30.15 in 10.0 mi Calm Calm - N/A   Clear
8:14 AM 67.1 °F - 58.8 °F 75% 30.15 in 10.0 mi Calm Calm - N/A   Clear
8:33 AM 69.4 °F - 60.6 °F 73% 30.15 in 10.0 mi Calm Calm - N/A   Clear
8:53 AM 71.6 °F - 61.0 °F 69% 30.15 in 10.0 mi Calm Calm - N/A   Clear
9:14 AM 74.3 °F - 61.0 °F 63% 30.15 in 10.0 mi South 4.6 mph - N/A   Clear
9:33 AM 76.1 °F - 61.0 °F 59% 30.14 in 10.0 mi SE 4.6 mph - N/A   Clear
9:53 AM 75.9 °F - 61.7 °F 61% 30.14 in 10.0 mi East 5.8 mph - N/A   Clear
10:14 AM 76.1 °F - 61.3 °F 60% 30.13 in 10.0 mi SE 6.9 mph - N/A   Clear
10:33 AM 77.7 °F - 61.3 °F 57% 30.13 in 10.0 mi SE 8.1 mph - N/A   Clear
10:53 AM 78.3 °F - 60.6 °F 54% 30.13 in 10.0 mi ESE 6.9 mph - N/A   Clear
11:14 AM 77.9 °F - 60.1 °F 54% 30.14 in 10.0 mi East 6.9 mph - N/A   Clear
11:33 AM 78.3 °F - 60.1 °F 53% 30.14 in 10.0 mi SE 6.9 mph - N/A   Clear
11:53 AM 79.3 °F - 60.4 °F 52% 30.14 in 10.0 mi ESE 6.9 mph - N/A   Clear
12:14 PM 80.4 °F 81.4 °F 61.2 °F 52% 30.14 in 10.0 mi ESE 8.1 mph - N/A   Clear
12:33 PM 80.8 °F 81.8 °F 61.5 °F 52% 30.14 in 10.0 mi SE 6.9 mph - N/A   Clear
12:53 PM 81.5 °F 82.4 °F 61.7 °F 51% 30.13 in 10.0 mi ESE 9.2 mph - N/A   Clear
1:14 PM 81.0 °F 81.9 °F 61.7 °F 52% 30.13 in 10.0 mi East 10.4 mph - N/A   Clear
1:33 PM 79.0 °F - 61.7 °F 55% 30.13 in 10.0 mi ESE 10.4 mph - N/A   Clear
1:53 PM 78.8 °F - 61.7 °F 56% 30.13 in 10.0 mi ESE 8.1 mph - N/A   Clear
2:14 PM 78.3 °F - 61.0 °F 55% 30.12 in 10.0 mi ESE 8.1 mph - N/A   Clear
2:33 PM 79.9 °F - 61.0 °F 52% 30.11 in 10.0 mi SE 6.9 mph - N/A   Clear
2:53 PM 79.9 °F - 61.0 °F 52% 30.11 in 10.0 mi ESE 10.4 mph - N/A   Clear
3:14 PM 79.0 °F - 60.6 °F 53% 30.10 in 10.0 mi ESE 10.4 mph - N/A   Clear
3:33 PM 79.5 °F - 61.2 °F 53% 30.10 in 10.0 mi East 9.2 mph - N/A   Clear
3:53 PM 79.0 °F - 60.1 °F 52% 30.09 in 10.0 mi ESE 10.4 mph - N/A   Clear
4:14 PM 79.0 °F - 59.7 °F 52% 30.09 in 10.0 mi ESE 10.4 mph - N/A   Clear
4:33 PM 78.8 °F - 59.7 °F 52% 30.08 in 10.0 mi ESE 9.2 mph - N/A   Clear
4:53 PM 79.0 °F - 60.6 °F 53% 30.08 in 10.0 mi ESE 10.4 mph - N/A   Clear
5:14 PM 78.6 °F - 61.0 °F 55% 30.08 in 10.0 mi SE 10.4 mph - N/A   Clear
5:33 PM 78.8 °F - 61.2 °F 55% 30.08 in 10.0 mi ESE 10.4 mph - N/A   Clear
5:53 PM 77.7 °F - 61.2 °F 57% 30.08 in 10.0 mi ESE 10.4 mph - N/A   Clear
6:14 PM 78.1 °F - 61.5 °F 57% 30.07 in 10.0 mi ESE 9.2 mph - N/A   Clear
6:33 PM 77.5 °F - 61.2 °F 57% 30.07 in 10.0 mi ESE 8.1 mph - N/A   Clear
6:53 PM 76.6 °F - 61.0 °F 58% 30.06 in 10.0 mi ESE 10.4 mph - N/A   Clear
7:13 PM 75.0 °F - 60.8 °F 61% 30.06 in 10.0 mi ESE 9.2 mph - N/A   Clear
7:33 PM 73.4 °F - 60.8 °F 65% 30.07 in 10.0 mi SE 15.0 mph 19.6 mph N/A   Mostly Cloudy
7:53 PM 71.8 °F - 61.9 °F 71% 30.07 in 10.0 mi SSE 6.9 mph - N/A   Scattered Clouds
8:13 PM 72.5 °F - 63.0 °F 72% 30.05 in 10.0 mi SSW 3.5 mph - N/A   Mostly Cloudy
8:33 PM 74.5 °F - 63.9 °F 69% 30.04 in 10.0 mi South 5.8 mph - N/A   Scattered Clouds
8:53 PM 75.0 °F - 64.9 °F 71% 30.03 in 10.0 mi SSE 4.6 mph - N/A   Clear
9:13 PM 74.3 °F - 65.7 °F 74% 30.02 in 10.0 mi South 3.5 mph - N/A   Clear
9:33 PM 73.8 °F - 66.2 °F 77% 30.02 in 10.0 mi Calm Calm - N/A   Clear
9:53 PM 73.6 °F - 66.4 °F 78% 30.03 in 5.0 mi South 5.8 mph - N/A   Haze
10:13 PM 72.9 °F - 66.4 °F 80% 30.03 in 10.0 mi South 4.6 mph - N/A   Clear
10:33 PM 72.7 °F - 66.4 °F 81% 30.05 in 10.0 mi South 6.9 mph - N/A   Clear
10:53 PM 73.0 °F - 66.6 °F 80% 30.05 in 10.0 mi South 5.8 mph - N/A   Scattered Clouds
11:13 PM 72.7 °F - 66.4 °F 81% 30.05 in 10.0 mi South 4.6 mph - N/A   Mostly Cloudy
11:33 PM 72.7 °F - 66.4 °F 81% 30.04 in 10.0 mi SSE 4.6 mph - N/A   Scattered Clouds
11:54 PM 72.7 °F - 66.2 °F 80% 30.04 in 10.0 mi SSE 4.6 mph - N/A   Scattered Clouds